Location: Trebic
(49.2170°N, 15.8830°E)
Time: 12:26:02
(UTC+02:00)

Transit 2A Rocket - Pass Details

Date: 01 August 2019
Orbit: 590 x 913 km, 66.7° (Epoch: 20 August)

Event Time Altitude Azimuth Distance (km) Brightness Sun altitude
Rises 02:58:38 0° 244° (WSW) 3,478 - -17.9°
Reaches altitude 10° 03:01:24 10° 252° (WSW) 2,507 - -17.7°
Exits shadow 03:02:34 15° 258° (WSW) 2,126 6.9 -17.6°
Maximum altitude 03:06:42 36° 318° (NW) 1,288 6.3 -17.3°
Drops below altitude 10° 03:11:40 10° 25° (NNE) 2,333 8.8 -16.8°
Sets 03:14:10 0° 34° (NE) 3,207 10.1 -16.6°
